Regional Weather Roundup
Issued by NWS Cleveland, OH

Home | Current Version | Previous Version | Text Only | Print | Product List | Glossary On
Versions: 1 2 3 4 5 6 7 8 9 10 11 12 13 14 15 16 17 18 19 20 21 22 23 24 25 26 27 28 29 30 31 32 33 34 35 36 37 38 39 40 41 42 43 44 45 46 47 48 49 50
000
ASUS41 KCLE 211412
RWRCLE
OHIO REGIONAL WEATHER ROUNDUP
NATIONAL WEATHER SERVICE WILMINGTON, OH
1000 AM EDT THU SEP 21 2017

NOTE: "FAIR" INDICATES FEW OR NO CLOUDS BELOW 12,000 FEET WITH NO
SIGNIFICANT WEATHER AND/OR OBSTRUCTIONS TO VISIBILITY.

OHZ001>008-015>018-024>027-034-035-043-044-211500-
   NORTHWEST OHIO

CITY           SKY/WX    TMP DP  RH WIND       PRES   REMARKS
DEFIANCE       FAIR      76  69  79 SW7       30.08R
FINDLAY        FAIR      78  69  73 S8        30.09R
TOLEDO EXPRESS FAIR      74  71  91 S3        30.08R
TOLEDO EXEC    FAIR      76  70  82 S5        30.09R
LIMA           FAIR      77  71  82 S9        30.10S
$$

OHZ009>014-019>023-028>033-038-089-211500-
   NORTHEAST OHIO

CITY           SKY/WX    TMP DP  RH WIND       PRES   REMARKS
CLE-HOPKINS    FAIR      79  66  64 S3        30.13R
CLE-LAKEFRONT  FAIR      78  64  61 CALM      30.10R
CUY CO. ARPT   SUNNY     79  64  61 VRB5      30.12R
LORAIN-ELYRIA  FAIR      74  63  68 SW3       30.11S
ASHTABULA      FAIR      72  67  84 SW3       30.14R
AKRON-CANTON   FAIR      76  66  71 CALM      30.14R
WOOSTER        FAIR      74  67  78 CALM      30.14R
MANSFIELD      FAIR      77  69  76 SW5       30.13S
YOUNGSTOWN     FAIR      74  67  78 CALM      30.14R
$$

OHZ042-051>053-060>062-070>072-077>081-211500-
  SOUTHWEST OHIO

CITY           SKY/WX    TMP DP  RH WIND       PRES   REMARKS
CINC-COVINGTON FAIR      76  72  87 S5        30.12R
CINC-LUNKEN    FAIR      70  70 100 CALM      30.12S FOG
HAMILTON       FAIR      75  70  84 CALM      30.12S
DAYTON         FAIR      76  69  79 SW6       30.13S
WRIGHT-PAT AFB MOSUNNY   74  71  89 CALM      30.11F
DAYTON GENERAL FAIR      76  68  76 S5        30.12R
WILMINGTON     FAIR      76  70  82 CALM      30.13R
$$

OHZ036-037-039>041-045>050-054>059-063>069-073>076-082>088-211500-
  CENTRAL AND SOUTHEAST OHIO

CITY           SKY/WX    TMP DP  RH WIND       PRES   REMARKS
COLUMBUS       FAIR      74  68  81 CALM      30.12R
OSU AIRPORT    FAIR      75  70  84 SW3       30.12S
BOLTON FIELD   SUNNY     72  70  94 CALM      30.13S
RICKENBACK AFB FAIR      70  69  97 CALM      30.13R
NEWARK         FAIR      68  67  96 CALM      30.12S
MARION         FAIR      75  68  78 S3        30.12S HAZE
LANCASTER      FAIR      73  67  81 CALM      30.13R
ZANESVILLE     FAIR      72  67  84 CALM      30.14R
NEW PHILLY     FAIR      70  67  90 CALM      30.14R FOG
$$



USA.gov is the U.S. government's official web portal to all federal, state and local government web resources and services.